OITM  Sahand Airport

Add Bookmark

Maragheh, Iran

Status IATA
Operational ACP
Latitude Longitude
37° 20' 52" N 46° 7' 40" E
37.348000 46.127899
Local (DST + 5) UTC (GMT + 4)
Dec 20, 2014 12:30 Dec 19, 2014 21:00
Sunrise-Sunset Local UTC
Begin Civil Twilight 07:04 03:34
Sunrise 07:34 04:04
Sunset 05:12 13:42
End Civil Twilight 05:41 14:11

Current Weather

METAR Observed VFR
OITM 191800Z 10004KT CAVOK 02/M02 Q1022 Fri, Dec 19, 2014 @ 18:00 UTC
(3 Hours ago)
Visual Flight Rules
Wind Visibility Clouds Conditions
100° at 4 knots (7 kph) 10 km or more
  • Clear skies
  • No significant weather
Temperatures Readings Precipitation
Current Temp 2°C (36°F)
Dewpoint -2°C (28°F)
Humidity 75%
Altimeter 30.18"Hg
Sea Level Pressure 1022mb
Field Elevation 4396.33'
None Recorded

Additional weather within a 92.6km radius of OITM

Map ICAO Location
OITT 87.8km N (006°)

24 Hour Weather History

Loading
-

24 Hour Weather Graphs

Loading
-

CheckWX.com is intended as a tool to help pilots better visualize weather data. It is not intended as a substitute for an official weather briefing obtained from a Flight Service Station. CheckWX.com does not meet the FAA requirements for an official pre-flight weather briefing. Therefore, it's important that pilots still call and obtain an official FSS pre-flight weather briefing.